カタログに戻る

COSMOS 734

運用中ナビゲーションLEO
NORAD 7823·PAYLOAD·🇷🇺 Russia

打ち上げ May 28, 1975 から Plesetsk Cosmodrome

Loading…

次のパス (今後24時間)

TLE

最新Source: Space-Track

元期: Sep 14, 2026, 00:19 UTC

1 07823U 75045C   26257.01330465 -.00000007  00000-0  60689-4 0  9996
2 07823  74.0148 104.7633 0018255 327.0081 187.0148 12.51799837344183

AllMySatでCOSMOS 734をリアルタイム追跡

Download on the App Store